Location: Burtsch�tz
(51.0528°N, 12.1764°E)
Time: 07:06:26
(UTC+00:00)

Cosmos 1331 Rocket - Pass Details

Date: 29 October 2020
Orbit: 749 x 778 km, 74.0° (Epoch: 01 December)

Event Time Altitude Azimuth Distance (km) Brightness Sun altitude
Rises 16:23:49 0° 195° (SSW) 3,189 7.6 -5.9°
Reaches altitude 10° 16:26:10 10° 193° (SSW) 2,267 6.8 -6.2°
Maximum altitude 16:31:16 70° 111° (ESE) 801 4.0 -7.0°
Drops below altitude 10° 16:36:24 10° 28° (NNE) 2,283 6.1 -7.8°
Sets 16:38:47 0° 27° (NNE) 3,213 6.9 -8.2°
